Location: Township of Marena
(38.1747°N, 99.6798°W)
Time: 11:47:32
(UTC+00:00)

ALOS - Pass Details

Date: 26 October 2020
Orbit: 683 x 685 km, 97.9° (Epoch: 25 November)

Event Time Altitude Azimuth Distance (km) Brightness Sun altitude
Rises 10:28:17 0° 25° (NNE) 3,053 6.0 -30.2°
Reaches altitude 10° 10:30:49 10° 37° (NE) 2,133 5.3 -29.7°
Maximum altitude 10:34:49 28° 96° (E) 1,278 4.2 -28.9°
Drops below altitude 10° 10:38:48 10° 155° (SSE) 2,120 5.0 -28.1°
Sets 10:41:18 0° 167° (SSE) 3,031 5.7 -27.6°
